TimeEST,TemperatureF,Dew PointF,Humidity,Sea Level PressureIn,VisibilityMPH,Wind Direction,Wind SpeedMPH,Gust SpeedMPH,PrecipitationIn,Events,Conditions,WindDirDegrees,DateUTC
12:15 AM,35.6,33.8,93,30.11,10.0,Calm,Calm,-,N/A,,Clear,0,2014-01-20 05:15:00
12:35 AM,37.4,33.8,87,30.11,10.0,WNW,4.6,-,N/A,,Clear,300,2014-01-20 05:35:00
12:55 AM,35.6,33.8,93,30.11,10.0,West,3.5,-,N/A,,Clear,270,2014-01-20 05:55:00
1:15 AM,32.0,32.0,100,30.10,10.0,Calm,Calm,-,N/A,,Clear,0,2014-01-20 06:15:00
1:35 AM,33.8,32.0,93,30.10,10.0,Calm,Calm,-,N/A,,Clear,0,2014-01-20 06:35:00
1:55 AM,32.0,32.0,100,30.10,10.0,Calm,Calm,-,N/A,,Clear,0,2014-01-20 06:55:00
2:15 AM,32.0,32.0,100,30.09,10.0,Calm,Calm,-,N/A,,Clear,0,2014-01-20 07:15:00
2:35 AM,32.0,32.0,100,30.09,10.0,SW,3.5,-,N/A,,Clear,230,2014-01-20 07:35:00
2:55 AM,32.0,32.0,100,30.10,10.0,SW,3.5,-,N/A,,Clear,230,2014-01-20 07:55:00
3:15 AM,32.0,32.0,100,30.09,10.0,Calm,Calm,-,N/A,,Clear,0,2014-01-20 08:15:00
3:35 AM,32.0,32.0,100,30.09,10.0,Calm,Calm,-,N/A,,Clear,0,2014-01-20 08:35:00
3:55 AM,32.0,32.0,100,30.09,10.0,Calm,Calm,-,N/A,,Clear,0,2014-01-20 08:55:00
4:15 AM,30.2,30.2,100,30.09,10.0,Calm,Calm,-,N/A,,Clear,0,2014-01-20 09:15:00
4:35 AM,30.2,30.2,100,30.09,10.0,SSW,3.5,-,N/A,,Clear,200,2014-01-20 09:35:00
4:55 AM,30.2,30.2,100,30.09,10.0,WSW,3.5,-,N/A,,Clear,240,2014-01-20 09:55:00
5:15 AM,30.2,30.2,100,30.09,10.0,Calm,Calm,-,N/A,,Clear,0,2014-01-20 10:15:00
5:35 AM,30.2,30.2,100,30.10,10.0,Calm,Calm,-,N/A,,Clear,0,2014-01-20 10:35:00
5:55 AM,30.2,30.2,100,30.10,10.0,Calm,Calm,-,N/A,,Clear,0,2014-01-20 10:55:00
6:15 AM,30.2,30.2,100,30.09,10.0,Calm,Calm,-,N/A,,Clear,0,2014-01-20 11:15:00
6:35 AM,28.4,28.4,100,30.10,10.0,Calm,Calm,-,N/A,,Clear,0,2014-01-20 11:35:00
6:55 AM,28.4,28.4,100,30.10,10.0,SW,3.5,-,N/A,,Clear,230,2014-01-20 11:55:00
7:15 AM,28.4,28.4,100,30.10,10.0,Calm,Calm,-,N/A,,Clear,0,2014-01-20 12:15:00
7:35 AM,28.4,28.4,100,30.10,10.0,Calm,Calm,-,N/A,,Clear,0,2014-01-20 12:35:00
7:55 AM,28.4,28.4,100,30.11,10.0,Calm,Calm,-,N/A,,Clear,0,2014-01-20 12:55:00
8:15 AM,32.0,32.0,100,30.11,10.0,Calm,Calm,-,N/A,,Clear,0,2014-01-20 13:15:00
8:35 AM,33.8,33.8,100,30.11,10.0,Calm,Calm,-,N/A,,Clear,0,2014-01-20 13:35:00
8:55 AM,37.4,35.6,93,30.11,10.0,Calm,Calm,-,N/A,,Clear,0,2014-01-20 13:55:00
9:15 AM,41.0,35.6,81,30.12,10.0,Calm,Calm,-,N/A,,Clear,0,2014-01-20 14:15:00
9:35 AM,42.8,35.6,76,30.12,10.0,Calm,Calm,-,N/A,,Clear,0,2014-01-20 14:35:00
9:55 AM,46.4,37.4,71,30.13,10.0,West,3.5,-,N/A,,Clear,270,2014-01-20 14:55:00
10:15 AM,48.2,37.4,66,30.13,10.0,Calm,Calm,-,N/A,,Clear,0,2014-01-20 15:15:00
10:35 AM,51.8,37.4,58,30.13,10.0,NW,4.6,-,N/A,,Clear,310,2014-01-20 15:35:00
10:55 AM,53.6,35.6,51,30.12,10.0,WNW,6.9,-,N/A,,Clear,300,2014-01-20 15:55:00
11:15 AM,55.4,35.6,47,30.12,10.0,WNW,6.9,-,N/A,,Clear,290,2014-01-20 16:15:00
11:35 AM,57.2,35.6,44,30.10,10.0,NW,9.2,-,N/A,,Clear,310,2014-01-20 16:35:00
11:55 AM,59.0,35.6,42,30.09,10.0,WNW,6.9,-,N/A,,Clear,290,2014-01-20 16:55:00
12:15 PM,59.0,35.6,42,30.08,10.0,West,5.8,-,N/A,,Clear,260,2014-01-20 17:15:00
12:35 PM,60.8,35.6,39,30.06,10.0,West,9.2,-,N/A,,Clear,280,2014-01-20 17:35:00
12:55 PM,60.8,35.6,39,30.05,10.0,NW,5.8,-,N/A,,Clear,320,2014-01-20 17:55:00
1:15 PM,60.8,35.6,39,30.03,10.0,WNW,6.9,-,N/A,,Clear,290,2014-01-20 18:15:00
1:35 PM,62.6,35.6,37,30.02,10.0,West,9.2,-,N/A,,Clear,270,2014-01-20 18:35:00
1:55 PM,62.6,35.6,37,30.01,10.0,WNW,10.4,-,N/A,,Clear,300,2014-01-20 18:55:00
2:15 PM,62.6,35.6,37,30.01,10.0,WNW,8.1,16.1,N/A,,Clear,290,2014-01-20 19:15:00
2:35 PM,62.6,35.6,37,30.00,10.0,WSW,8.1,-,N/A,,Clear,240,2014-01-20 19:35:00
2:55 PM,64.4,35.6,34,29.99,10.0,WSW,10.4,-,N/A,,Clear,250,2014-01-20 19:55:00
3:15 PM,64.4,35.6,34,29.99,10.0,WNW,6.9,-,N/A,,Clear,300,2014-01-20 20:15:00
3:35 PM,64.4,35.6,34,29.99,10.0,West,10.4,17.3,N/A,,Clear,260,2014-01-20 20:35:00
3:55 PM,64.4,35.6,34,29.99,10.0,West,8.1,-,N/A,,Clear,280,2014-01-20 20:55:00
4:15 PM,64.4,35.6,34,29.99,10.0,West,6.9,-,N/A,,Clear,270,2014-01-20 21:15:00
4:35 PM,64.4,35.6,34,29.98,10.0,WSW,6.9,-,N/A,,Clear,250,2014-01-20 21:35:00
4:55 PM,62.6,35.6,37,29.98,10.0,West,3.5,-,N/A,,Clear,260,2014-01-20 21:55:00
5:15 PM,62.6,35.6,37,29.98,10.0,WSW,3.5,-,N/A,,Clear,250,2014-01-20 22:15:00
5:35 PM,60.8,35.6,39,29.99,10.0,WSW,3.5,-,N/A,,Clear,240,2014-01-20 22:35:00
5:55 PM,53.6,39.2,58,29.99,10.0,Calm,Calm,-,N/A,,Clear,0,2014-01-20 22:55:00
6:15 PM,50.0,37.4,62,29.99,10.0,Calm,Calm,-,N/A,,Clear,0,2014-01-20 23:15:00
6:35 PM,50.0,37.4,62,29.99,10.0,Calm,Calm,-,N/A,,Clear,0,2014-01-20 23:35:00
6:55 PM,46.4,37.4,71,29.99,10.0,WSW,3.5,-,N/A,,Clear,240,2014-01-20 23:55:00
7:15 PM,44.6,37.4,76,29.99,10.0,SW,3.5,-,N/A,,Clear,230,2014-01-21 00:15:00
7:35 PM,42.8,37.4,81,29.99,10.0,Calm,Calm,-,N/A,,Clear,0,2014-01-21 00:35:00
7:55 PM,41.0,37.4,87,30.00,10.0,SW,3.5,-,N/A,,Clear,230,2014-01-21 00:55:00
8:15 PM,44.6,37.4,76,30.00,10.0,WSW,3.5,-,N/A,,Clear,240,2014-01-21 01:15:00
8:35 PM,42.8,35.6,76,30.00,10.0,Calm,Calm,-,N/A,,Clear,0,2014-01-21 01:35:00
8:55 PM,42.8,35.6,76,30.00,10.0,WSW,3.5,-,N/A,,Clear,240,2014-01-21 01:55:00
9:15 PM,41.0,35.6,81,29.99,10.0,WSW,3.5,-,N/A,,Clear,240,2014-01-21 02:15:00
9:35 PM,41.0,35.6,81,29.99,10.0,WSW,3.5,-,N/A,,Clear,240,2014-01-21 02:35:00
9:55 PM,44.6,35.6,71,29.99,10.0,WSW,3.5,-,N/A,,Clear,240,2014-01-21 02:55:00
10:15 PM,46.4,35.6,66,29.99,10.0,WSW,3.5,-,N/A,,Clear,240,2014-01-21 03:15:00
10:35 PM,46.4,35.6,66,29.99,10.0,WSW,4.6,-,N/A,,Clear,240,2014-01-21 03:35:00
10:55 PM,44.6,35.6,71,29.98,10.0,WSW,3.5,-,N/A,,Clear,240,2014-01-21 03:55:00
11:15 PM,44.6,37.4,76,29.98,10.0,Calm,Calm,-,N/A,,Clear,0,2014-01-21 04:15:00
11:35 PM,44.6,37.4,76,29.98,10.0,West,4.6,-,N/A,,Clear,260,2014-01-21 04:35:00
11:55 PM,44.6,37.4,76,29.97,10.0,WSW,3.5,-,N/A,,Clear,240,2014-01-21 04:55:00